TimeEST,TemperatureF,Dew PointF,Humidity,Sea Level PressureIn,VisibilityMPH,Wind Direction,Wind SpeedMPH,Gust SpeedMPH,PrecipitationIn,Events,Conditions,WindDirDegrees,DateUTC
12:53 AM,19.0,10.0,68,29.92,10.0,West,12.7,-,N/A,,Overcast,270,2014-02-23 05:53:00
1:06 AM,19.0,10.0,68,29.87,10.0,West,15.0,-,N/A,,Overcast,280,2014-02-23 06:06:00
1:53 AM,17.1,9.0,71,29.93,10.0,West,10.4,20.7,N/A,,Overcast,280,2014-02-23 06:53:00
2:53 AM,16.0,9.0,74,29.94,10.0,West,10.4,-,0.00,,Overcast,280,2014-02-23 07:53:00
3:53 AM,15.1,9.0,77,29.94,10.0,West,10.4,18.4,N/A,,Overcast,280,2014-02-23 08:53:00
4:37 AM,14.0,7.0,74,29.88,10.0,West,10.4,-,N/A,,Scattered Clouds,270,2014-02-23 09:37:00
4:53 AM,12.9,7.0,77,29.94,10.0,West,12.7,-,N/A,,Partly Cloudy,270,2014-02-23 09:53:00
5:05 AM,14.0,7.0,74,29.89,9.0,West,9.2,-,0.00,Snow,Light Snow,280,2014-02-23 10:05:00
5:53 AM,14.0,7.0,74,29.96,10.0,West,12.7,-,0.00,,Overcast,270,2014-02-23 10:53:00
6:53 AM,14.0,7.0,74,29.97,10.0,West,12.7,21.9,0.00,,Overcast,270,2014-02-23 11:53:00
7:53 AM,12.9,8.1,81,29.98,4.0,West,10.4,-,0.00,Snow,Light Snow,260,2014-02-23 12:53:00
8:53 AM,14.0,7.0,74,30.00,6.0,West,18.4,24.2,0.00,Snow,Light Snow,270,2014-02-23 13:53:00
9:53 AM,14.0,6.1,71,30.01,8.0,West,15.0,25.3,0.00,Snow,Light Snow,280,2014-02-23 14:53:00
10:53 AM,16.0,7.0,68,30.01,10.0,West,15.0,-,0.00,,Overcast,280,2014-02-23 15:53:00
11:53 AM,17.1,7.0,65,30.01,10.0,West,13.8,23.0,N/A,,Overcast,260,2014-02-23 16:53:00
12:32 PM,17.1,6.1,62,29.94,10.0,West,13.8,23.0,N/A,,Partly Cloudy,270,2014-02-23 17:32:00
12:53 PM,18.0,6.1,60,30.00,10.0,West,13.8,-,N/A,,Partly Cloudy,260,2014-02-23 17:53:00
1:31 PM,18.0,7.0,62,29.93,10.0,West,15.0,-,N/A,,Mostly Cloudy,270,2014-02-23 18:31:00
1:53 PM,17.1,6.1,62,29.99,10.0,West,15.0,21.9,N/A,,Mostly Cloudy,270,2014-02-23 18:53:00
2:53 PM,19.0,6.1,57,29.98,10.0,West,17.3,25.3,N/A,,Mostly Cloudy,260,2014-02-23 19:53:00
3:53 PM,19.0,7.0,59,29.97,10.0,West,16.1,26.5,N/A,,Overcast,260,2014-02-23 20:53:00
4:53 PM,17.1,6.1,62,29.99,10.0,West,19.6,26.5,N/A,,Overcast,280,2014-02-23 21:53:00
5:53 PM,16.0,8.1,71,30.00,5.0,WNW,13.8,-,0.00,Snow,Light Snow,290,2014-02-23 22:53:00
6:53 PM,16.0,8.1,71,30.00,10.0,West,12.7,-,0.00,,Overcast,280,2014-02-23 23:53:00
7:53 PM,16.0,9.0,74,30.01,10.0,West,9.2,-,N/A,,Overcast,280,2014-02-24 00:53:00
8:53 PM,17.1,7.0,65,30.01,10.0,WNW,12.7,23.0,N/A,,Overcast,290,2014-02-24 01:53:00
9:53 PM,17.1,8.1,68,30.01,10.0,West,16.1,21.9,N/A,,Overcast,280,2014-02-24 02:53:00
10:53 PM,17.1,7.0,65,30.00,10.0,West,15.0,-,N/A,,Overcast,280,2014-02-24 03:53:00
11:29 PM,16.0,9.0,74,29.94,2.0,WNW,15.0,-,0.00,Snow,Light Snow,290,2014-02-24 04:29:00
11:31 PM,16.0,10.0,77,29.94,1.2,WNW,12.7,-,0.00,Snow,Light Snow,300,2014-02-24 04:31:00
11:34 PM,16.0,10.9,81,29.94,0.8,NW,15.0,-,0.00,Snow,Light Snow,310,2014-02-24 04:34:00
11:42 PM,15.1,10.9,84,29.95,1.2,NW,17.3,-,0.00,Snow,Light Snow,310,2014-02-24 04:42:00
11:53 PM,12.9,8.1,81,30.02,1.8,North,10.4,24.2,0.00,Snow,Light Snow,350,2014-02-24 04:53:00
11:56 PM,12.9,8.1,81,29.95,3.0,North,12.7,21.9,0.00,Snow,Light Snow,350,2014-02-24 04:56:00